User: anonymous   Login
Location: Unspecified
(0.0000°N, 0.0000°E)
Time: 06:26:05
(UTC+00:00)
Language:

GONETS M 05 - Orbit

View from above orbital plane
View from above orbital plane
View from above satellite
View from above satellite

Ground track
Ground track

The orbit data is extracted from the following two-line orbital elements,

1 39249U 13048A   17234.34638343 +.00000024 +00000-0 +10000-3 0  9994
2 39249 082.4820 191.2368 0017335 039.7484 320.4866 12.42894133178920
Epoch (UTC): 22 August 2017 08:18:47
Eccentricity: 0.0017335
inclination: 82.4820°
perigee height: 1481 km
apogee height: 1508 km
right ascension of ascending node: 191.2368°
argument of perigee: 39.7484°
revolutions per day: 12.42894133
mean anomaly at epoch: 320.4866°
orbit number at epoch: 17892

The dashed part of the orbit path shows where the satellite is in the earth's shadow,  

DLR